Pipestone, MN

2:35 AM CDT on September 30, 2016 (GMT -0500)
Pipestone Municipal

Weather History for KPQN - January, 2013

Change the Weather History Date:

Sunday, January 27, 2013

  Actual Average Record
Temperature  
Mean Temperature 30 °F -  
Max Temperature 33 °F 23 °F 42 °F (2006)
Min Temperature 28 °F 9 °F -16 °F (2004)
Degree Days  
Heating Degree Days 34    
Moisture  
Dew Point 28 °F    
Average Humidity 88    
Maximum Humidity 100    
Minimum Humidity 69    
Precipitation  
Precipitation 0.05 in - - ()
Sea Level Pressure  
Sea Level Pressure 29.78 in    
Wind  
Wind Speed 10 mph (South)    
Max Wind Speed 16 mph    
Max Gust Speed 18 mph    
Visibility 5 miles    
Events Fog , Rain , Snow    
Averages and records for this station are not official NWS values.
T = Trace of Precipitation, MM = Missing Value Source: NWS Daily Summary

Daily Weather History Graph

Daily Weather History Graph

Search for Another Location

Airport or City:

Trip Planner

Search our weather history database for the weather conditions in past years. The results will help you decide how hot, cold, wet, or windy it might be!

Date:

Astronomy

Jan. 27, 2013 Rise Set
Actual Time 7:47 AM CST 5:29 PM CST
Civil Twilight 7:16 AM CST 6:00 PM CST
Nautical Twilight 6:41 AM CST 6:35 PM CST
Astronomical Twilight 6:07 AM CST 7:09 PM CST
Moon 6:28 PM CST (1/27) 7:38 AM CST (1/27)
Length of Visible Light 10h 43m
Length of Day
9h 41m
Full, 100% of the Moon is Illuminated
Jan 27
Full
Feb 3
Last Quarter
Feb 10
New
Feb 17
First Quarter
Feb 25
Full

Hourly Weather History & Observations

Time (CST) Temp. Windchill Dew Point Humidity Pressure Visibility Wind Dir Wind Speed Gust Speed Precip Events Conditions
12:14 AM 30.2 °F 18.9 °F 21.2 °F 69% 29.92 in 10.0 mi South 16.1 mph - N/A   Clear
12:53 AM 30.2 °F 21.3 °F 21.2 °F 69% 29.91 in 10.0 mi South 10.4 mph - N/A   Clear
1:13 AM 30.2 °F 21.3 °F 21.2 °F 69% 29.91 in 10.0 mi South 10.4 mph - N/A   Clear
1:33 AM 28.4 °F 18.0 °F 21.2 °F 74% 29.90 in 10.0 mi South 12.7 mph - N/A   Clear
1:53 AM 30.2 °F 19.8 °F 21.2 °F 69% 29.89 in 10.0 mi South 13.8 mph - N/A   Clear
2:14 AM 30.2 °F 19.8 °F 21.2 °F 69% 29.89 in 10.0 mi South 13.8 mph - N/A   Clear
2:33 AM 30.2 °F 19.3 °F 21.2 °F 69% 29.89 in 10.0 mi South 15.0 mph - N/A   Clear
2:53 AM 30.2 °F 20.2 °F 21.2 °F 69% 29.88 in 10.0 mi South 12.7 mph - N/A   Clear
3:14 AM 28.4 °F 17.5 °F 21.2 °F 74% 29.87 in 10.0 mi SSE 13.8 mph - N/A   Clear
3:33 AM 30.2 °F 19.3 °F 23.0 °F 75% 29.86 in 10.0 mi South 15.0 mph - N/A   Clear
3:53 AM 28.4 °F 17.0 °F 23.0 °F 80% 29.86 in 10.0 mi South 15.0 mph - N/A   Clear
4:14 AM 28.4 °F 17.0 °F 23.0 °F 80% 29.85 in 10.0 mi South 15.0 mph - N/A   Clear
4:33 AM 28.4 °F 17.5 °F 23.0 °F 80% 29.84 in 10.0 mi South 13.8 mph - N/A   Clear
4:53 AM 30.2 °F 20.8 °F 23.0 °F 75% 29.85 in 10.0 mi South 11.5 mph - N/A   Clear
5:13 AM 28.4 °F 19.7 °F 23.0 °F 80% 29.84 in 10.0 mi SSE 9.2 mph - N/A   Clear
5:53 AM 28.4 °F 19.7 °F 21.2 °F 74% 29.83 in 10.0 mi SSE 9.2 mph - N/A   Clear
6:13 AM 28.4 °F 18.0 °F 21.2 °F 74% 29.83 in 10.0 mi South 12.7 mph 17.3 mph N/A   Scattered Clouds
6:33 AM 30.2 °F 20.2 °F 21.2 °F 69% 29.82 in 10.0 mi South 12.7 mph 18.4 mph N/A   Mostly Cloudy
6:53 AM 30.2 °F 21.3 °F 23.0 °F 75% 29.82 in 10.0 mi SSE 10.4 mph - N/A   Overcast
7:12 AM 30.2 °F 21.9 °F 23.0 °F 75% 29.82 in 10.0 mi SSE 9.2 mph - N/A   Overcast
7:33 AM 30.2 °F 20.8 °F 23.0 °F 75% 29.81 in 10.0 mi SSE 11.5 mph - N/A   Overcast
7:53 AM 30.2 °F - 23.0 °F 75% 29.81 in 10.0 mi Calm Calm - N/A   Overcast
8:14 AM 30.2 °F 24.3 °F 23.0 °F 75% 29.81 in 10.0 mi SSE 5.8 mph - N/A   Overcast
8:33 AM 30.2 °F 22.6 °F 24.8 °F 80% 29.81 in 10.0 mi South 8.1 mph - N/A   Overcast
8:53 AM 30.2 °F 21.9 °F 24.8 °F 80% 29.81 in 10.0 mi South 9.2 mph - N/A   Overcast
9:14 AM 30.2 °F 24.3 °F 26.6 °F 86% 29.80 in 10.0 mi South 5.8 mph - N/A   Overcast
9:33 AM 30.2 °F 23.4 °F 28.4 °F 93% 29.80 in 10.0 mi SSW 6.9 mph - N/A   Overcast
9:53 AM 32.0 °F 24.8 °F 28.4 °F 87% 29.80 in 7.0 mi South 8.1 mph - N/A   Overcast
10:14 AM 32.0 °F 24.2 °F 30.2 °F 93% 29.81 in 7.0 mi South 9.2 mph - N/A   Overcast
10:33 AM 32.0 °F 23.6 °F 30.2 °F 93% 29.80 in 5.0 mi South 10.4 mph - N/A   Overcast
10:53 AM 32.0 °F 24.2 °F 30.2 °F 93% 29.80 in 4.0 mi South 9.2 mph - N/A   Overcast
11:14 AM 32.0 °F 24.2 °F 32.0 °F 100% 29.79 in 3.0 mi SSE 9.2 mph - N/A   Overcast
11:33 AM 33.8 °F 26.4 °F 32.0 °F 93% 29.78 in 4.0 mi SSE 9.2 mph - 0.02 in   Overcast
11:53 AM 33.8 °F 26.4 °F 32.0 °F 93% 29.77 in 3.0 mi SSE 9.2 mph - 0.02 in   Overcast
12:14 PM 33.8 °F 27.0 °F 32.0 °F 93% 29.76 in 3.0 mi SSE 8.1 mph - 0.02 in   Overcast
12:33 PM 33.8 °F 27.0 °F 33.8 °F 100% 29.75 in 4.0 mi South 8.1 mph - 0.02 in   Overcast
12:53 PM 33.8 °F 26.4 °F 33.8 °F 100% 29.74 in 5.0 mi South 9.2 mph - 0.01 in Rain Light Rain
1:13 PM 33.8 °F 25.8 °F 33.8 °F 100% 29.73 in 5.0 mi South 10.4 mph - 0.01 in   Overcast
1:33 PM 33.8 °F 25.8 °F 33.8 °F 100% 29.72 in 5.0 mi South 10.4 mph - N/A   Overcast
1:53 PM 33.8 °F 26.4 °F 33.8 °F 100% 29.72 in 4.0 mi South 9.2 mph - N/A   Overcast
2:13 PM 33.8 °F 25.8 °F 33.8 °F 100% 29.71 in 3.0 mi South 10.4 mph - N/A   Overcast
2:53 PM 33.8 °F 27.0 °F 33.8 °F 100% 29.70 in 0.8 mi South 8.1 mph - N/A   Overcast
3:13 PM 33.8 °F 25.8 °F 32.0 °F 93% 29.70 in 0.5 mi South 10.4 mph - N/A Fog Fog
3:33 PM 33.8 °F 27.7 °F 32.0 °F 93% 29.71 in 0.5 mi South 6.9 mph - N/A Fog Fog
3:53 PM 33.8 °F 27.7 °F 32.0 °F 93% 29.70 in 0.8 mi SSE 6.9 mph - N/A   Overcast
4:14 PM 33.8 °F 27.7 °F 32.0 °F 93% 29.70 in 0.8 mi SSE 6.9 mph - N/A   Overcast
4:33 PM 33.8 °F 27.7 °F 32.0 °F 93% 29.71 in 0.8 mi SSE 6.9 mph - N/A   Overcast
4:53 PM 33.8 °F 28.6 °F 32.0 °F 93% 29.71 in 0.8 mi SE 5.8 mph - N/A   Overcast
5:14 PM 33.8 °F 28.6 °F 32.0 °F 93% 29.72 in 0.8 mi SSE 5.8 mph - N/A   Overcast
5:53 PM 33.8 °F 28.6 °F 32.0 °F 93% 29.72 in 1.0 mi SSE 5.8 mph - N/A   Overcast
6:14 PM 32.0 °F 27.5 °F 32.0 °F 100% 29.72 in 0.8 mi SSE 4.6 mph - N/A   Overcast
6:33 PM 32.0 °F 27.5 °F 32.0 °F 100% 29.72 in 0.8 mi SSE 4.6 mph - N/A   Overcast
6:53 PM 32.0 °F 28.7 °F 32.0 °F 100% 29.73 in 0.8 mi SSE 3.5 mph - N/A   Overcast
7:13 PM 32.0 °F 28.7 °F 32.0 °F 100% 29.73 in 0.5 mi SE 3.5 mph - N/A   Overcast
7:33 PM 32.0 °F 28.7 °F 32.0 °F 100% 29.73 in 0.5 mi SSE 3.5 mph - N/A Fog Fog
7:53 PM 32.0 °F 28.7 °F 32.0 °F 100% 29.73 in 0.8 mi South 3.5 mph - N/A Snow Light Snow
8:13 PM 32.0 °F 27.5 °F 32.0 °F 100% 29.73 in 0.8 mi SSE 4.6 mph - N/A   Overcast
8:33 PM 32.0 °F 27.5 °F 32.0 °F 100% 29.72 in 0.5 mi SE 4.6 mph - N/A Fog Fog
8:53 PM 32.0 °F 26.4 °F 32.0 °F 100% 29.73 in 1.0 mi South 5.8 mph - N/A   Overcast
9:13 PM 32.0 °F 27.5 °F 32.0 °F 100% 29.73 in 0.8 mi SSW 4.6 mph - N/A   Overcast
9:33 PM 32.0 °F 25.6 °F 32.0 °F 100% 29.73 in 0.5 mi South 6.9 mph - N/A Fog Fog
10:13 PM 30.2 °F 22.6 °F 30.2 °F 100% 29.72 in 0.5 mi South 8.1 mph - N/A Fog Light Freezing Fog
10:33 PM 32.0 °F 26.4 °F 30.2 °F 93% 29.73 in 0.5 mi SW 5.8 mph - N/A Fog Fog
10:53 PM 32.0 °F 27.5 °F 32.0 °F 100% 29.74 in 0.2 mi WSW 4.6 mph - N/A Fog Fog
11:13 PM 32.0 °F 24.8 °F 32.0 °F 100% 29.75 in 0.2 mi West 8.1 mph - N/A Fog Fog
11:33 PM 32.0 °F 28.7 °F 32.0 °F 100% 29.76 in 0.2 mi West 3.5 mph - N/A Fog Fog
11:53 PM 32.0 °F - 32.0 °F 100% 29.76 in 0.2 mi Calm Calm - N/A Fog Fog